Wind_Speed
25 27 28 31 34 37 39 43 47 52 56 59 64 69 74 76 76 77 77 76 72 66 62 61 61 62 63 63 61 58 57 56 57 58 59 60 60 61 62 63 61 57 49 40
24 25 27 30 34 37 40 44 48 53 57 61 66 70 73 74 75 76 76 75 70 63 60 60 61 62 63 63 60 57 56 57 59 61 61 61 62 63 66 66 61 51 39 28
28 28 30 34 39 41 42 45 50 54 58 62 67 71 73 74 74 75 76 73 66 60 58 60 62 63 63 62 58 55 55 58 61 63 63 63 64 67 69 67 57 43 28 16
35 36 35 38 41 43 44 46 51 55 59 63 67 72 73 73 74 75 74 70 64 58 57 60 62 62 62 61 57 55 56 60 63 65 65 65 67 70 70 64 51 36 21 8
41 43 41 40 42 44 47 47 52 56 61 64 67 72 72 72 73 74 73 69 63 57 56 60 62 62 61 60 57 55 56 60 64 66 66 67 69 72 71 60 46 31 17 5
45 46 47 46 45 45 47 49 53 57 61 64 67 70 70 71 72 73 72 68 62 56 55 59 62 61 61 60 57 55 56 61 65 67 67 68 71 74 72 60 44 30 17 5
49 49 50 52 48 46 47 50 54 57 60 63 66 69 69 70 71 72 71 68 61 56 55 59 61 61 60 60 58 56 57 61 64 67 68 69 71 75 74 62 46 32 19 8
53 57 56 56 51 46 46 49 53 56 59 61 65 68 68 69 70 71 70 67 61 56 55 57 60 60 59 60 58 56 57 60 63 66 68 69 71 73 75 67 50 36 23 12
51 55 58 57 51 46 46 48 52 56 57 60 64 67 67 68 69 70 69 66 61 55 54 56 58 59 58 59 58 56 57 59 61 64 68 69 69 71 74 72 59 43 31 18
50 55 58 58 53 47 46 48 53 56 57 60 64 66 66 67 68 68 68 65 60 55 53 54 57 58 57 57 58 57 57 57 59 62 66 68 69 70 72 74 69 55 40 27
50 54 58 59 55 49 47 50 53 55 57 61 64 65 66 67 67 67 67 64 60 55 52 53 55 56 56 56 57 57 56 56 57 60 63 67 69 70 71 73 74 67 53 39
49 53 58 60 58 52 50 51 54 55 58 61 64 65 66 66 66 65 66 64 60 55 51 51 53 54 54 54 56 56 56 56 56 57 60 63 67 69 69 69 70 70 65 55
50 53 57 60 59 55 52 52 54 55 58 62 64 65 65 65 65 64 64 63 60 55 50 49 51 53 53 52 53 55 55 56 55 56 57 60 62 65 67 68 68 68 67 65
50 53 57 59 59 57 54 53 53 54 57 61 64 64 65 64 64 63 63 63 60 55 49 47 49 51 51 51 51 52 54 54 55 55 55 57 59 61 63 66 67 67 66 65
51 52 56 59 60 59 56 54 53 53 56 59 62 64 64 63 63 62 62 62 60 55 49 46 47 49 50 49 49 50 51 52 54 54 54 54 55 56 59 61 64 65 65 64
51 51 55 58 60 61 58 54 52 52 54 57 61 63 63 62 62 61 61 61 59 55 50 45 44 46 47 47 47 47 48 50 51 53 53 52 52 52 54 56 59 61 63 63
52 52 55 58 60 61 59 54 51 51 52 55 60 63 63 61 60 59 59 59 58 54 49 44 42 43 45 45 45 45 46 47 49 50 51 51 50 50 50 51 54 57 59 61
53 53 56 59 60 60 59 53 50 50 51 54 59 62 62 60 59 58 57 57 56 54 49 44 40 40 42 44 44 44 44 45 46 48 49 49 49 48 48 48 50 52 54 56
55 56 56 60 60 59 58 53 50 50 50 54 59 62 61 59 58 57 56 56 55 53 49 44 40 39 40 41 42 43 43 44 44 45 46 47 47 47 47 47 47 48 50 52
57 57 58 61 61 60 58 53 50 49 50 54 59 62 61 58 56 55 54 54 53 51 48 44 40 38 38 38 40 41 42 42 43 43 43 44 44 44 45 46 46 47 48 49
59 59 61 63 62 60 56 51 49 49 50 54 59 62 60 58 55 53 52 51 51 50 47 44 40 37 36 36 37 38 40 41 41 42 42 42 42 42 43 44 44 46 47 47
60 61 64 64 62 57 52 50 49 48 49 52 58 61 60 56 53 51 50 49 49 48 46 44 41 37 35 35 35 36 38 39 40 41 42 41 41 41 41 41 42 44 45 46
61 63 65 63 58 53 49 49 49 47 47 51 56 59 59 56 53 50 48 47 47 46 44 44 42 38 35 34 33 34 35 37 38 40 40 41 41 41 40 40 41 42 43 44
63 64 64 59 53 50 49 48 48 47 47 50 55 58 58 55 51 49 46 45 45 44 43 42 41 39 36 34 32 32 33 34 36 37 39 39 40 41 40 40 40 40 41 41
63 64 61 54 51 51 49 48 46 46 47 51 55 58 57 55 51 47 45 43 43 43 41 40 40 39 37 35 33 31 31 31 32 34 36 37 38 39 39 40 40 40 39 39
64 63 56 51 50 49 47 46 45 46 47 52 56 56 56 54 51 47 44 42 41 41 40 38 37 38 38 36 33 32 31 30 31 31 33 34 36 36 37 38 38 39 39 39
63 58 51 47 47 47 45 44 44 46 48 52 55 55 54 53 50 47 44 41 41 40 40 38 36 36 37 37 35 33 32 31 31 31 31 31 32 33 34 35 36 36 37 38
Wind_Direction
346 345 341 334 333 334 335 336 338 340 341 342 342 343 344 345 344 344 344 344 344 343 344 345 347 347 348 348 348 349 350 349 346 343 340 337 335 332 329 326 321 316 309 299
345 341 337 332 333 336 337 337 339 340 342 343 343 345 345 345 345 345 345 346 346 345 345 347 349 349 350 350 350 351 351 351 348 345 343 341 338 336 333 331 327 323 315 300
346 339 337 334 336 336 338 338 339 341 343 343 344 345 346 346 346 347 347 348 348 347 347 349 351 352 352 352 353 353 353 352 350 349 348 346 343 342 340 337 335 333 326 307
353 346 342 337 335 335 338 339 339 340 342 343 344 345 347 346 347 349 348 349 350 349 350 351 353 354 354 354 354 354 354 355 354 353 352 351 350 349 346 343 342 342 338 314
358 353 347 339 335 335 337 340 339 340 342 343 344 345 347 347 348 349 350 351 351 350 351 353 355 356 356 356 356 355 356 357 357 357 357 356 355 355 353 351 349 349 347 322
358 354 350 345 337 334 336 338 340 340 341 343 344 345 347 347 348 350 351 352 352 351 351 354 356 357 357 358 358 357 358 359 360 1 1 1 0 1 1 359 357 357 355 334
357 354 351 346 340 336 336 337 339 340 341 343 344 346 347 348 349 351 352 353 353 352 352 354 357 358 358 359 360 359 360 1 2 4 5 5 5 7 7 6 6 4 3 351
354 354 351 347 342 337 335 336 337 339 341 342 344 346 347 348 350 351 353 354 354 353 353 355 358 359 360 1 1 1 2 3 4 6 8 9 9 11 13 13 13 13 13 9
351 351 350 348 343 338 334 335 337 339 341 342 344 347 347 348 350 352 354 355 356 355 355 356 359 0 1 3 3 4 5 5 6 9 11 12 13 15 18 19 19 20 21 21
348 348 349 348 345 339 334 334 336 338 340 342 345 347 347 348 350 353 355 356 357 356 356 358 360 1 3 4 5 6 6 6 8 11 13 15 17 19 21 23 24 24 24 25
345 346 347 347 346 340 335 334 336 338 340 342 345 347 347 348 350 353 355 357 357 357 358 359 1 2 4 5 7 8 8 7 9 12 15 17 20 21 23 25 27 28 28 28
342 343 345 345 346 342 336 334 337 338 339 342 344 346 347 348 350 353 356 357 358 358 358 -0 2 3 5 7 8 9 10 9 10 13 16 19 22 24 25 27 29 30 31 31
338 341 342 343 345 343 338 336 337 338 339 341 344 345 347 348 350 352 355 357 358 358 359 360 2 3 5 7 9 10 11 12 12 15 17 20 23 26 28 29 30 32 32 33
334 337 340 342 344 343 339 337 337 337 339 341 343 345 346 347 349 352 355 357 358 358 358 359 1 3 5 8 9 11 12 13 14 16 18 20 23 25 28 30 31 32 33 34
330 334 336 339 342 343 340 337 336 337 339 341 343 345 345 347 349 352 355 356 357 358 358 359 360 2 5 7 9 10 12 14 15 16 18 20 22 25 27 29 31 33 33 34
326 329 332 336 340 341 339 337 336 336 338 340 343 345 345 346 348 351 355 356 357 357 358 358 359 1 4 7 8 9 11 12 14 16 17 19 22 24 26 28 31 33 34 34
322 325 328 333 337 338 338 336 334 335 337 339 342 344 344 346 348 350 353 356 356 357 358 357 357 360 4 6 8 9 9 11 13 14 17 19 21 24 26 27 29 31 33 34
319 322 326 331 334 335 337 334 333 333 336 338 341 343 344 345 347 349 352 355 355 357 357 356 355 359 3 6 8 9 9 10 12 14 16 18 21 24 26 27 28 30 32 33
317 321 324 328 330 332 333 332 331 331 334 336 339 342 343 344 346 348 350 353 355 356 357 356 356 358 2 5 8 9 10 11 11 13 15 18 20 23 25 27 28 29 30 31
316 319 322 326 327 328 330 329 328 329 331 334 336 339 341 343 345 346 348 351 354 355 356 356 356 357 360 3 6 9 11 12 13 13 14 16 18 20 23 25 26 27 28 28
315 317 320 323 324 325 326 326 325 326 330 333 335 337 339 341 343 344 346 349 352 353 354 355 356 356 357 0 4 6 9 12 14 14 14 14 15 16 18 21 23 24 25 26
313 315 319 321 322 322 323 323 323 324 328 331 334 336 338 339 341 342 344 347 351 351 351 353 355 355 354 356 0 3 6 9 12 14 14 14 14 14 15 17 19 21 23 23
310 313 317 319 320 320 321 322 323 323 326 330 333 334 336 337 339 340 343 345 349 349 349 351 354 353 352 352 355 359 2 5 8 10 12 13 13 13 13 14 16 18 19 20
307 311 315 316 317 317 318 320 321 322 324 329 331 333 334 335 336 338 339 343 346 347 347 349 352 352 351 349 350 352 356 359 2 5 7 9 10 11 11 11 13 14 15 16
305 308 311 312 313 314 315 317 318 319 322 326 329 331 332 333 334 335 337 340 344 346 346 346 348 351 350 347 346 346 348 350 353 357 2 4 5 6 7 9 11 12 12 13
302 305 306 308 311 313 314 314 315 316 319 324 327 329 330 331 331 332 334 337 340 343 343 343 344 348 349 347 344 342 341 342 344 348 352 356 360 2 3 4 7 9 10 10
298 300 301 304 308 311 312 312 313 314 317 322 326 327 328 329 330 330 331 334 337 340 341 340 340 343 346 347 345 342 339 336 337 339 342 346 351 355 358 359 1 3 5 7
Height
5851 5846 5841 5835 5829 5823 5816 5807 5799 5790 5779 5767 5755 5741 5726 5710 5694 5678 5660 5643 5626 5611 5598 5585 5571 5556 5541 5528 5513 5500 5487 5474 5461 5446 5432 5418 5403 5389 5374 5359 5345 5332 5323 5318
5851 5845 5839 5833 5826 5820 5812 5803 5794 5784 5774 5762 5748 5735 5720 5705 5689 5673 5656 5639 5622 5607 5594 5581 5567 5553 5538 5524 5509 5496 5483 5470 5456 5441 5426 5410 5394 5378 5361 5342 5326 5311 5303 5301
5847 5842 5837 5829 5822 5814 5807 5798 5789 5778 5769 5756 5743 5731 5717 5701 5685 5669 5652 5634 5618 5604 5591 5578 5564 5549 5534 5520 5506 5493 5480 5466 5451 5436 5420 5403 5386 5367 5347 5327 5310 5298 5291 5289
5843 5837 5831 5826 5816 5809 5802 5793 5783 5773 5763 5751 5738 5726 5712 5696 5681 5665 5647 5630 5614 5601 5589 5575 5561 5545 5531 5517 5503 5490 5478 5464 5448 5432 5415 5398 5379 5359 5337 5316 5300 5290 5285 5283
5838 5831 5826 5820 5811 5802 5795 5788 5779 5768 5757 5746 5734 5721 5708 5692 5676 5661 5643 5626 5611 5598 5586 5572 5558 5543 5529 5515 5502 5489 5476 5462 5447 5430 5413 5394 5375 5354 5332 5310 5295 5286 5282 5280
5835 5827 5820 5815 5805 5796 5789 5782 5773 5762 5752 5742 5730 5717 5703 5687 5672 5656 5639 5623 5609 5596 5584 5571 5556 5542 5528 5514 5501 5487 5474 5459 5444 5428 5410 5392 5372 5351 5328 5307 5293 5285 5281 5279
5832 5824 5817 5809 5799 5790 5784 5777 5767 5758 5748 5737 5726 5713 5699 5684 5669 5653 5637 5622 5606 5593 5582 5570 5556 5541 5527 5514 5500 5486 5472 5458 5443 5427 5410 5392 5373 5352 5330 5309 5295 5286 5282 5280
5826 5817 5812 5802 5792 5785 5780 5771 5762 5753 5743 5733 5721 5708 5694 5680 5665 5650 5635 5619 5604 5592 5581 5569 5555 5541 5528 5514 5500 5486 5472 5459 5444 5428 5412 5395 5377 5358 5337 5317 5301 5291 5285 5282
5824 5818 5808 5797 5788 5781 5774 5767 5758 5749 5739 5728 5717 5704 5691 5677 5662 5648 5633 5617 5603 5590 5579 5567 5555 5541 5528 5515 5501 5487 5474 5461 5447 5432 5416 5400 5383 5365 5346 5326 5309 5297 5290 5286
5821 5812 5804 5795 5785 5777 5770 5763 5754 5745 5735 5724 5713 5700 5687 5674 5660 5646 5631 5616 5602 5589 5578 5566 5554 5541 5529 5516 5503 5489 5476 5464 5451 5436 5421 5405 5389 5372 5355 5337 5320 5306 5297 5291
5817 5809 5801 5792 5783 5774 5766 5758 5750 5741 5731 5720 5709 5697 5684 5671 5657 5643 5629 5614 5601 5589 5578 5566 5554 5543 5530 5518 5505 5492 5479 5467 5454 5441 5426 5411 5395 5379 5363 5346 5331 5318 5307 5298
5814 5806 5798 5789 5779 5770 5762 5754 5746 5736 5726 5716 5705 5693 5681 5668 5655 5641 5627 5613 5600 5588 5577 5566 5555 5544 5532 5520 5508 5496 5484 5472 5459 5446 5432 5418 5403 5388 5374 5359 5345 5333 5320 5310
5808 5801 5793 5783 5774 5766 5757 5749 5741 5732 5722 5713 5702 5690 5678 5665 5653 5640 5626 5613 5600 5588 5577 5566 5556 5545 5534 5522 5510 5499 5488 5476 5464 5452 5439 5426 5413 5400 5387 5373 5359 5347 5335 5324
5803 5796 5788 5779 5770 5761 5753 5744 5736 5727 5719 5709 5698 5686 5675 5662 5651 5638 5626 5613 5600 5588 5577 5566 5557 5546 5535 5524 5514 5503 5492 5481 5469 5458 5445 5433 5421 5410 5398 5386 5373 5361 5349 5338
5798 5792 5784 5775 5766 5757 5748 5740 5732 5723 5715 5705 5695 5683 5671 5660 5649 5637 5625 5612 5600 5588 5577 5567 5557 5547 5537 5527 5517 5507 5497 5486 5475 5463 5452 5441 5430 5419 5408 5396 5385 5373 5362 5351
5793 5786 5779 5770 5761 5753 5744 5736 5727 5719 5711 5702 5691 5680 5669 5657 5647 5635 5623 5611 5599 5587 5576 5567 5558 5549 5539 5529 5519 5510 5500 5490 5480 5469 5459 5448 5437 5427 5417 5407 5396 5385 5375 5365
5786 5780 5773 5765 5756 5748 5740 5731 5722 5715 5706 5697 5688 5677 5666 5655 5644 5633 5622 5610 5599 5587 5576 5567 5559 5550 5541 5531 5522 5513 5504 5494 5485 5475 5464 5454 5444 5434 5425 5415 5406 5396 5386 5376
5780 5774 5767 5759 5750 5743 5735 5726 5718 5710 5701 5693 5684 5673 5662 5652 5641 5631 5620 5610 5599 5588 5577 5568 5559 5550 5541 5533 5524 5516 5507 5498 5489 5480 5470 5460 5451 5441 5432 5423 5414 5405 5395 5386
5772 5766 5759 5752 5744 5736 5729 5721 5712 5705 5697 5688 5680 5670 5659 5648 5638 5629 5619 5609 5598 5587 5577 5567 5559 5550 5542 5534 5526 5518 5509 5501 5492 5484 5475 5466 5457 5448 5439 5430 5422 5413 5404 5395
5764 5757 5751 5744 5737 5730 5723 5715 5707 5699 5691 5684 5675 5666 5655 5644 5634 5626 5616 5607 5596 5586 5575 5566 5558 5550 5543 5535 5528 5520 5512 5504 5495 5487 5480 5472 5463 5455 5446 5437 5429 5420 5412 5403
5755 5749 5743 5737 5730 5723 5716 5708 5700 5693 5686 5679 5671 5662 5651 5641 5631 5622 5613 5604 5594 5584 5575 5566 5558 5550 5543 5536 5529 5522 5515 5507 5499 5491 5483 5476 5468 5460 5452 5443 5435 5427 5419 5410
5746 5740 5735 5729 5722 5715 5708 5701 5693 5687 5680 5673 5666 5657 5647 5636 5627 5618 5610 5602 5592 5583 5575 5567 5558 5550 5543 5537 5530 5523 5517 5510 5502 5494 5487 5479 5472 5464 5456 5449 5441 5432 5424 5417
5737 5732 5726 5721 5714 5707 5700 5693 5687 5680 5674 5667 5660 5652 5642 5632 5623 5614 5607 5599 5590 5582 5574 5566 5557 5550 5543 5536 5530 5524 5518 5511 5504 5497 5490 5482 5475 5468 5460 5453 5445 5437 5430 5422
5727 5723 5717 5711 5706 5700 5693 5686 5680 5674 5668 5662 5655 5646 5637 5627 5619 5610 5602 5595 5587 5580 5572 5564 5556 5549 5542 5535 5529 5523 5517 5512 5506 5499 5492 5485 5478 5471 5464 5456 5448 5441 5434 5427
5717 5713 5708 5702 5697 5692 5685 5678 5673 5667 5662 5656 5648 5640 5631 5622 5614 5605 5598 5591 5584 5577 5569 5562 5555 5548 5541 5534 5528 5522 5517 5511 5506 5500 5493 5486 5480 5473 5466 5459 5452 5444 5438 5431
5707 5703 5698 5694 5689 5683 5677 5671 5665 5660 5655 5649 5642 5634 5625 5617 5609 5601 5594 5587 5580 5573 5566 5559 5553 5547 5540 5533 5526 5521 5515 5510 5505 5500 5494 5487 5481 5474 5468 5461 5454 5448 5441 5434
5696 5692 5688 5684 5680 5674 5669 5663 5658 5653 5648 5642 5635 5627 5619 5611 5603 5596 5589 5583 5577 5570 5564 5557 5550 5544 5538 5532 5525 5518 5513 5508 5503 5498 5493 5487 5481 5475 5469 5463 5456 5450 5443 5436